Miscellaneous Local Product
Issued by NWS North Platte, NE

Home | Current Version | Previous Version | Graphics & Text | Print | Product List | Glossary Off
Versions: 1 2 3 4 5 6 7 8 9 10 11 12 13 14 15 16 17 18 19 20 21 22 23 24 25 26 27 28 29 30 31 32 33 34 35 36 37 38 39 40 41 42 43 44 45 46 47 48 49 50

950
AXUS43 KLBF 111110
MISLBF


WESTERN AND NORTH CENTRAL NEBRASKA HOURLY WEATHER ROUNDUP
NATIONAL WEATHER SERVICE NORTH PLATTE NE
500 AM CST THU FEB 11 2016

NOTE: "FAIR" INDICATES FEW OR NO CLOUDS BELOW 12,000 FEET WITH NO
SIGNIFICANT WEATHER AND/OR OBSTRUCTIONS TO VISIBILITY.

NOTE: STATIONS NOT REPORTING VARIABLES SUCH AS SKY/WEATHER OR
PRESSURE ARE PROVIDED BY THE NEBRASKA DEPARTMENT OF
ROADS...RAWS...AND APRS NETWORKS...AND ARE NOT UNDER
NATIONAL WEATHER SERVICE QUALITY CONTROL.

...OBSERVATIONS IN AND NEAR THE EASTERN PANHANDLE OF NEBRASKA...

CITY           SKY/WX    TMP DP  RH WIND       PRES   REMARKS
PINE RIDGE     CLOUDY    23  20  88 CALM      30.05F
CHADRON        CLOUDY    25  22  88 W6        30.05F WCI  18
ALLIANCE       CLOUDY    24  20  84 CALM      30.06F
SIDNEY         CLOUDY    33  24  69 NW13      30.09F WCI  24
CRESCENT LAKE    N/A     30  26  86 SW3         N/A
BIG SPRINGS      N/A     29  26  87 CALM        N/A
$$

...OBSERVATIONS IN NORTH CENTRAL NEBRASKA...

CITY           SKY/WX    TMP DP  RH WIND       PRES   REMARKS
VALENTINE      CLOUDY    28  26  92 S5        30.11F WCI  23
THEDFORD       CLOUDY    31  30  98 S5        30.12F FOG     WCI  26
AINSWORTH      CLOUDY    28  24  86 CALM      30.11F
O`NEILL        CLOUDY    25  24  95 SE3       30.17F FOG
ORD            CLOUDY    28  25  88 E5        30.17F WCI  23
BROKEN BOW     CLOUDY    30  27  88 N8        30.14S WCI  22
VALENTINE NWR    N/A     26  26  99 CALM        N/A
BUTTE            N/A     22  20  92 E5          N/A  WCI  16
HALSEY           N/A     29  28  95 CALM        N/A
CHAMBERS         N/A     25  22  87 CALM        N/A
EWING            N/A     21  19  93 CALM        N/A
$$

...OBSERVATIONS IN SOUTHWEST NEBRASKA AND FAR NORTHEAST COLORADO...

CITY           SKY/WX    TMP DP  RH WIND       PRES   REMARKS
HOLYOKE        FAIR      30  25  80 SW7       30.11F WCI  23
IMPERIAL       CLOUDY    27  23  85 CALM      30.13F
OGALLALA       CLOUDY    24  22  93 CALM      30.11F
NORTH PLATTE   CLOUDY    26  23  88 NE9       30.14F WCI  17
MCCOOK         CLOUDY    27  24  89 S3        30.16S
LEXINGTON      CLOUDY    30  27  88 NW3       30.18R
PAXTON           N/A     25  22  89 CALM        N/A
STAPLETON        N/A     27  26  95 CALM        N/A
GOTHENBURG       N/A     27  25  90 N3          N/A
CALLAWAY         N/A     29  28  95 CALM        N/A
$$

...OBSERVATIONS IN CENTRAL LINCOLN COUNTY AREA...

CITY           SKY/WX    TMP DP  RH WIND       PRES   REMARKS
N.P. AIRPORT   CLOUDY    26  23  88 NE9       30.14F WCI  17
N.P. DOWNTOWN    N/A     26  24  94 CALM        N/A
N.P. SOUTHEAST   N/A     24  22  91 CALM        N/A
N.P. HILLCREST   N/A     26  25  95 E8          N/A  WCI  18
$$

...SOME OBSERVATIONS FROM AROUND THE REGION...

CITY           SKY/WX    TMP DP  RH WIND       PRES   REMARKS
DENVER         CLOUDY    30  20  66 S14       30.15F WCI  19
LARAMIE        CLOUDY    34  15  46 SW16      30.20S WCI  24
CHEYENNE       CLOUDY    42  15  33 W22G33    30.12F
SCOTTSBLUFF    CLOUDY    31  24  75 N6        30.09S WCI  25
RAPID CITY     CLOUDY    28  27  96 SE9       30.01F FOG     WCI  19
BISMARCK       CLOUDY    19  12  74 SE7       30.15F WCI  10
PIERRE         CLOUDY    21  19  92 SE7       30.15F WCI  12
WINNER         CLOUDY    26  22  84 E7        30.15S WCI  18
SIOUX FALLS    CLOUDY    13   5  70 E5        30.25S WCI   5
OMAHA          PTCLDY    15   6  67 N6        30.28R WCI   6
GRAND ISLAND   CLOUDY    26  22  84 N13       30.21S WCI  15
KANSAS CITY    PTCLDY    22  19  89 NE8       30.19R WCI  12
WICHITA        PTCLDY    35  27  72 N8        30.14R WCI  29
OKLAHOMA CITY  CLOUDY    43  32  65 N10       30.07R
LIBERAL        CLOUDY    30  21  69 N7        30.16S WCI  23
HAYS           CLEAR     30  19  64 NE10      30.19R WCI  21
GOODLAND       CLOUDY    26  21  81 SW7       30.15F WCI  18
$$




USA.gov is the U.S. government's official web portal to all federal, state and local government web resources and services.